TimeAST,TemperatureF,Dew PointF,Humidity,Sea Level PressureIn,VisibilityMPH,Wind Direction,Wind SpeedMPH,Gust SpeedMPH,PrecipitationIn,Events,Conditions,WindDirDegrees,DateUTC
12:00 AM,10.8,0.3,63,29.94,-9999.0,NW,8.1,-,N/A,,Unknown,310,2013-02-02 04:00:00
1:00 AM,9.7,-0.9,62,29.95,-9999.0,WNW,6.9,-,N/A,,Unknown,300,2013-02-02 05:00:00
2:00 AM,8,0,59,29.96,,WNW,4.6,,,,,290,2013-02-02 06:00:00
2:00 AM,8.4,0.3,70,29.96,-9999.0,WNW,4.6,-,N/A,,Unknown,290,2013-02-02 06:00:00
3:00 AM,7.5,-0.0,71,29.99,-9999.0,West,3.5,-,N/A,,Unknown,280,2013-02-02 07:00:00
4:00 AM,6.8,-0.2,73,30.01,-9999.0,WSW,3.5,-,N/A,,Unknown,250,2013-02-02 08:00:00
5:00 AM,6,-1,61,30.05,,West,3.5,,,,,280,2013-02-02 09:00:00
5:00 AM,6.3,-1.1,72,30.05,-9999.0,West,3.5,-,N/A,,Unknown,280,2013-02-02 09:00:00
6:00 AM,6.1,-2.2,69,30.08,-9999.0,West,3.5,-,N/A,,Unknown,280,2013-02-02 10:00:00
7:00 AM,5.4,-2.4,70,30.11,-9999.0,WNW,3.5,-,N/A,,Unknown,290,2013-02-02 11:00:00
8:00 AM,5,-3,57,30.14,,WNW,2.3,,,,,290,2013-02-02 12:00:00
8:00 AM,4.6,-2.9,71,30.14,-9999.0,WNW,2.3,-,N/A,,Unknown,290,2013-02-02 12:00:00
9:00 AM,7.5,-3.5,61,30.16,-9999.0,NW,3.5,-,N/A,,Unknown,310,2013-02-02 13:00:00
10:00 AM,9.1,-4.2,55,30.17,-9999.0,WNW,8.1,-,N/A,,Unknown,290,2013-02-02 14:00:00
11:00 AM,11,-7,27,30.16,,WNW,9.2,,,,,290,2013-02-02 15:00:00
11:00 AM,11.3,-7.2,43,30.16,-9999.0,WNW,9.2,-,N/A,,Unknown,290,2013-02-02 15:00:00
12:00 PM,14.0,-6.9,39,30.14,-9999.0,West,9.2,-,N/A,,Unknown,280,2013-02-02 16:00:00
1:00 PM,16.0,-3.1,43,30.12,-9999.0,WSW,8.1,-,N/A,,Unknown,250,2013-02-02 17:00:00
2:00 PM,17,-4,24,30.11,,WSW,8.1,,,,,250,2013-02-02 18:00:00
2:00 PM,17.2,-3.8,39,30.11,-9999.0,WSW,8.1,-,N/A,,Unknown,250,2013-02-02 18:00:00
3:00 PM,19.6,-3.6,36,30.10,-9999.0,WSW,6.9,-,N/A,,Unknown,240,2013-02-02 19:00:00
4:00 PM,19.6,-3.6,36,30.11,-9999.0,WSW,8.1,-,N/A,,Unknown,250,2013-02-02 20:00:00
5:00 PM,19,-3,22,30.11,,WSW,6.9,,,,,250,2013-02-02 21:00:00
5:00 PM,19.4,-3.1,37,30.11,-9999.0,WSW,6.9,-,N/A,,Unknown,250,2013-02-02 21:00:00
6:00 PM,16.5,3.0,55,30.13,-9999.0,SSE,1.2,-,N/A,,Unknown,160,2013-02-02 22:00:00
7:00 PM,15.4,6.4,68,30.13,-9999.0,SSE,1.2,-,N/A,,Unknown,150,2013-02-02 23:00:00
8:00 PM,14,7,61,30.13,,East,1.2,,,,,90,2013-02-03 00:00:00
10:00 PM,15.4,6.6,68,30.12,-9999.0,SE,2.3,-,N/A,,Unknown,130,2013-02-03 02:00:00
11:00 PM,16,9,63,30.12,,East,2.3,,,,,80,2013-02-03 03:00:00
11:00 PM,16.2,9.0,73,30.12,-9999.0,East,2.3,-,N/A,,Unknown,80,2013-02-03 03:00:00